Location: Hackbridge
(51.3833°N, 0.1500°W)
Time: 01:22:37
(UTC+00:00)

MINOTAUR IV R/B - Pass Details

Date: 13 October 2019
Orbit: 628 x 636 km, 72.0° (Epoch: 12 November)

Event Time Altitude Azimuth Distance (km) Brightness Sun altitude
Rises 19:17:11 0° 332° (NNW) 2,943 8.6 -20.2°
Reaches altitude 10° 19:19:28 10° 334° (NNW) 2,032 7.7 -20.5°
Maximum altitude 19:24:02 74° 60° (ENE) 666 4.5 -21.2°
Enters shadow 19:24:51 57° 124° (SE) 751 4.6 -21.3°
